Voltar ao catálogo

STARLINK-33597

AtivoComunicaçõesVLEO
NORAD 62763·PAYLOAD·🇺🇸 United States

Lançado Jan 21, 2025 de Vandenberg Space Force Base

Loading…

Próximas Passagens (próximas 24 horas)

TLE

AtualizadoSource: CelesTrak SupGP

Época: Sep 15, 2026, 02:23 UTC

1 62763C 25015F   26258.09979167  .00046739  00000+0  15026-2 0  2580
2 62763  53.1573 161.5191 0001240  93.0647  23.6830 15.31687169    10

Acompanhe STARLINK-33597 em tempo real com AllMySat

Download on the App Store